Volver al catálogo

SL-14 DEB

ActivoPO
NORAD 19230·DEBRIS·🇷🇺 Russia

Lanzado Oct 26, 1978 desde Plesetsk Cosmodrome

Loading…

Próximos Pases (próximas 24 horas)

TLE

ActualizadoSource: Space-Track

Época: Sep 14, 2026, 03:10 UTC

1 19230U 78100Z   26257.13204203  .00000055  00000-0  57680-3 0  9997
2 19230  82.5353 310.0338 0017590  75.8315 311.8500 11.98787903677003

Sigue SL-14 DEB en tiempo real con AllMySat

Download on the App Store